軌道要素
Epoch 2014 Dec. 9.0 TT = JDT 2457000.5
T 2014 Nov. 26.35313 TT MPCW
q 6.2031701 (2000.0) P Q
z -0.0004395 Peri. 45.61070 +0.79404000 -0.35931175
+/-0.0000025 Node 35.68659 -0.15304678 -0.89878530
e 1.0027261 Incl. 122.80798 +0.58828323 +0.25115743
From 69 observations 2013 Oct. 12-2015 Sept. 14, mean residual 0".4.
|